When you browse on this site, cookies collect data to enhance your experience and personalize the content and advertising you see.
Visit our Privacy Policy to learn more. By continuing to use the site, you agree to this use of cookies and data.
  • En España
  • Lista de países
  • Para 7 días
  • Temperatura del agua
  • El tiempo en el mapa
  • Informadores
  • user-avatar
    Iniciar sesión

    Tiempo cada hora Pitrufquén

    Hoy, 25 Enero, Sábado

    Tiempo Temperatura Precipitaciones Viento Presión Humedad
    00:00 +10°C° 0 mm 0 mps 755 mmHg 89%
    01:00 +10°C° 0 mm 0 mps 755 mmHg 90%
    02:00 +9°C° 0 mm 0 mps 755 mmHg 90%
    03:00 +9°C° 0 mm 0 mps 755 mmHg 89%
    04:00 +10°C° 0 mm 1 mps 755 mmHg 88%
    05:00 +11°C° 0 mm 0 mps 755 mmHg 79%
    06:00 +13°C° 0 mm 0 mps 755 mmHg 70%
    07:00 +16°C° 0 mm 0 mps 755 mmHg 61%
    08:00 +21°C° 0 mm 1 mps 755 mmHg 54%
    09:00 +24°C° 0 mm 1 mps 755 mmHg 46%
    10:00 +27°C° 0 mm 2 mps 754 mmHg 39%
    11:00 +28°C° 0 mm 2 mps 754 mmHg 37%
    12:00 +29°C° 0 mm 3 mps 754 mmHg 36%
    13:00 +30°C° 0 mm 3 mps 754 mmHg 35%
    14:00 +29°C° 0 mm 4 mps 754 mmHg 38%
    15:00 +28°C° 0 mm 4 mps 754 mmHg 42%
    16:00 +27°C° 0 mm 4 mps 753 mmHg 46%
    17:00 +25°C° 0 mm 3 mps 754 mmHg 54%
    18:00 +22°C° 0 mm 3 mps 754 mmHg 63%
    19:00 +20°C° 0 mm 2 mps 755 mmHg 72%
    20:00 +18°C° 0 mm 2 mps 755 mmHg 80%
    21:00 +18°C° 0 mm 1 mps 755 mmHg 89%
    22:00 +15°C° 0 mm 1 mps 756 mmHg 97%
    23:00 +15°C° 0 mm 1 mps 755 mmHg 97%

    Mañana, 26 Enero, Domingo

    Tiempo Temperatura Precipitaciones Viento Presión Humedad
    00:00 +15°C° 0 mm 1 mps 755 mmHg 96%
    01:00 +14°C° 0 mm 0 mps 755 mmHg 96%
    02:00 +14°C° 0 mm 0 mps 755 mmHg 95%
    03:00 +14°C° 0 mm 0 mps 755 mmHg 95%
    04:00 +14°C° 0 mm 0 mps 755 mmHg 95%
    05:00 +15°C° 0 mm 0 mps 755 mmHg 91%
    06:00 +16°C° 0 mm 0 mps 755 mmHg 88%
    07:00 +16°C° 0 mm 0 mps 756 mmHg 84%
    08:00 +21°C° 0 mm 1 mps 756 mmHg 72%
    09:00 +24°C° 0 mm 1 mps 756 mmHg 60%
    10:00 +26°C° 0 mm 1 mps 756 mmHg 48%
    11:00 +28°C° 0 mm 2 mps 755 mmHg 44%
    12:00 +29°C° 0 mm 2 mps 755 mmHg 40%
    13:00 +30°C° 0 mm 3 mps 755 mmHg 36%
    14:00 +29°C° 0 mm 3 mps 755 mmHg 38%
    15:00 +28°C° 0 mm 3 mps 754 mmHg 40%
    16:00 +27°C° 0 mm 4 mps 754 mmHg 42%
    17:00 +25°C° 0 mm 3 mps 754 mmHg 48%
    18:00 +21°C° 0 mm 3 mps 755 mmHg 54%
    19:00 +18°C° 0 mm 2 mps 755 mmHg 59%
    20:00 +16°C° 0 mm 2 mps 755 mmHg 68%
    21:00 +15°C° 0 mm 1 mps 756 mmHg 76%
    22:00 +13°C° 0 mm 1 mps 756 mmHg 84%
    23:00 +11°C° 0 mm 0 mps 756 mmHg 86%

    Pasado mañana, 27 Enero, Lunes

    Tiempo Temperatura Precipitaciones Viento Presión Humedad
    00:00 +11°C° 0 mm 0 mps 755 mmHg 88%
    01:00 +11°C° 0 mm 0 mps 755 mmHg 91%
    02:00 +10°C° 0 mm 0 mps 755 mmHg 91%
    03:00 +10°C° 0 mm 0 mps 754 mmHg 91%
    04:00 +11°C° 0 mm 1 mps 754 mmHg 92%
    05:00 +12°C° 0 mm 1 mps 754 mmHg 83%
    06:00 +13°C° 0 mm 0 mps 754 mmHg 74%
    07:00 +15°C° 0 mm 0 mps 754 mmHg 65%
    08:00 +20°C° 0 mm 1 mps 754 mmHg 53%
    09:00 +23°C° 0 mm 1 mps 753 mmHg 41%
    10:00 +27°C° 0 mm 2 mps 753 mmHg 29%
    11:00 +28°C° 0 mm 2 mps 753 mmHg 26%
    12:00 +29°C° 0 mm 3 mps 753 mmHg 23%
    13:00 +31°C° 0 mm 3 mps 753 mmHg 20%
    14:00 +30°C° 0 mm 3 mps 752 mmHg 23%
    15:00 +29°C° 0 mm 4 mps 752 mmHg 26%
    16:00 +28°C° 0 mm 4 mps 752 mmHg 28%
    17:00 +25°C° 0 mm 3 mps 752 mmHg 32%
    18:00 +21°C° 0 mm 3 mps 753 mmHg 36%
    19:00 +18°C° 0 mm 2 mps 753 mmHg 40%
    20:00 +16°C° 0 mm 1 mps 753 mmHg 50%
    21:00 +14°C° 0 mm 1 mps 753 mmHg 60%
    22:00 +12°C° 0 mm 1 mps 753 mmHg 70%
    23:00 +11°C° 0 mm 0 mps 753 mmHg 75%

    28 Enero, Martes

    Tiempo Temperatura Precipitaciones Viento Presión Humedad
    00:00 +10°C° 0 mm 0 mps 753 mmHg 80%
    01:00 +10°C° 0 mm 0 mps 752 mmHg 86%
    02:00 +10°C° 0 mm 0 mps 752 mmHg 86%
    03:00 +10°C° 0 mm 0 mps 752 mmHg 86%
    04:00 +10°C° 0 mm 0 mps 752 mmHg 86%
    05:00 +11°C° 0 mm 0 mps 752 mmHg 79%
    06:00 +13°C° 0 mm 0 mps 752 mmHg 72%
    07:00 +15°C° 0 mm 0 mps 752 mmHg 64%
    08:00 +18°C° 0 mm 0 mps 752 mmHg 59%
    09:00 +22°C° 0 mm 1 mps 752 mmHg 54%
    10:00 +25°C° 0 mm 1 mps 752 mmHg 49%
    11:00 +25°C° 0 mm 2 mps 752 mmHg 45%
    12:00 +26°C° 0 mm 3 mps 752 mmHg 40%
    13:00 +27°C° 0 mm 3 mps 752 mmHg 36%
    14:00 +26°C° 0 mm 4 mps 752 mmHg 40%
    15:00 +25°C° 0 mm 4 mps 752 mmHg 44%
    16:00 +22°C° 0 mm 4 mps 752 mmHg 48%
    17:00 +21°C° 0 mm 3 mps 752 mmHg 56%
    18:00 +19°C° 0 mm 3 mps 752 mmHg 64%
    19:00 +17°C° 0 mm 2 mps 753 mmHg 73%
    20:00 +15°C° 0 mm 2 mps 753 mmHg 81%
    21:00 +14°C° 0 mm 1 mps 754 mmHg 89%
    22:00 +12°C° 0 mm 1 mps 754 mmHg 97%
    23:00 +12°C° 0 mm 1 mps 754 mmHg 97%

    29 Enero, Miércoles

    Tiempo Temperatura Precipitaciones Viento Presión Humedad
    00:00 +11°C° 0 mm 1 mps 754 mmHg 97%
    01:00 +10°C° 0 mm 0 mps 754 mmHg 97%
    02:00 +10°C° 0 mm 1 mps 754 mmHg 97%
    03:00 +9°C° 0 mm 1 mps 754 mmHg 97%
    04:00 +8°C° 0 mm 1 mps 754 mmHg 97%
    05:00 +9°C° 0 mm 1 mps 755 mmHg 90%
    06:00 +10°C° 0 mm 1 mps 755 mmHg 84%
    07:00 +11°C° 0 mm 1 mps 755 mmHg 77%
    08:00 +14°C° 0 mm 2 mps 755 mmHg 64%
    09:00 +17°C° 0 mm 2 mps 755 mmHg 51%
    10:00 +19°C° 0 mm 2 mps 755 mmHg 39%
    11:00 +21°C° 0 mm 3 mps 754 mmHg 34%
    12:00 +22°C° 0 mm 3 mps 754 mmHg 30%
    13:00 +25°C° 0 mm 3 mps 753 mmHg 26%
    14:00 +24°C° 0 mm 3 mps 753 mmHg 28%
    15:00 +24°C° 0 mm 3 mps 753 mmHg 30%
    16:00 +24°C° 0 mm 3 mps 753 mmHg 32%
    17:00 +20°C° 0 mm 3 mps 754 mmHg 42%
    18:00 +17°C° 0 mm 2 mps 754 mmHg 51%
    19:00 +15°C° 0 mm 2 mps 754 mmHg 61%
    20:00 +13°C° 0 mm 1 mps 755 mmHg 71%
    21:00 +11°C° 0 mm 1 mps 755 mmHg 81%
    22:00 +8°C° 0 mm 0 mps 755 mmHg 91%
    23:00 +7°C° 0 mm 0 mps 755 mmHg 91%

    30 Enero, Jueves

    Tiempo Temperatura Precipitaciones Viento Presión Humedad
    00:00 +7°C° 0 mm 0 mps 755 mmHg 91%
    01:00 +7°C° 0 mm 1 mps 754 mmHg 91%
    02:00 +6°C° 0 mm 0 mps 754 mmHg 92%
    03:00 +6°C° 0 mm 0 mps 754 mmHg 92%
    04:00 +5°C° 0 mm 0 mps 754 mmHg 92%
    05:00 +8°C° 0 mm 1 mps 754 mmHg 83%
    06:00 +10°C° 0 mm 1 mps 754 mmHg 74%
    07:00 +12°C° 0 mm 1 mps 754 mmHg 65%
    08:00 +15°C° 0 mm 1 mps 754 mmHg 54%
    09:00 +20°C° 0 mm 1 mps 754 mmHg 42%
    10:00 +23°C° 0 mm 2 mps 754 mmHg 31%
    11:00 +25°C° 0 mm 2 mps 753 mmHg 31%
    12:00 +27°C° 0 mm 3 mps 753 mmHg 32%
    13:00 +28°C° 0 mm 3 mps 753 mmHg 32%
    14:00 +27°C° 0 mm 3 mps 753 mmHg 36%
    15:00 +27°C° 0 mm 4 mps 753 mmHg 39%
    16:00 +26°C° 0 mm 4 mps 753 mmHg 42%
    17:00 +22°C° 0 mm 3 mps 753 mmHg 53%
    18:00 +20°C° 0 mm 3 mps 753 mmHg 63%
    19:00 +17°C° 0 mm 2 mps 754 mmHg 74%
    20:00 +16°C° 0 mm 1 mps 754 mmHg 82%
    21:00 +14°C° 0 mm 1 mps 754 mmHg 90%
    22:00 +12°C° 0 mm 0 mps 755 mmHg 98%
    23:00 +12°C° 0 mm 0 mps 754 mmHg 98%
    Mostrar más